Back to catalog

THOR ABLESTAR DEB

AliveLEO
NORAD 337·DEBRIS·🇺🇸 United States

Launched Jun 29, 1961 from Cape Canaveral Space Force Station

Loading…

Next Passes (next 24 hours)

TLE

FreshSource: Space-Track

Epoch: Sep 14, 2026, 11:58 UTC

1 00337U 61015DP  26257.49867368  .00000191  00000-0  25820-3 0  9990
2 00337  67.0074  71.1198 0104969 197.8548 161.8827 13.76471920257071

Track THOR ABLESTAR DEB in real time with AllMySat

Download on the App Store